カタログに戻る

BREEZE-M DEB

TANK

運用中HEO
NORAD 38979·DEBRIS·🇷🇺 Russia

打ち上げ Nov 2, 2012 から Baikonur Cosmodrome

Loading…

次のパス (今後24時間)

TLE

最新Source: Space-Track

元期: Sep 11, 2026, 04:16 UTC

1 38979U 12061C   26254.17792379  .00000134  00000-0  47605-3 0  9993
2 38979  46.9003 153.3005 7100500 119.5070 327.9140  2.27849688113750

AllMySatでBREEZE-M DEBをリアルタイム追跡

Download on the App Store